This is the latest recevied weather packets stored in our database for station/object W4TTU-1. If no packets are shown the sender has not sent any weather packets the latest 10 day(s).
| Time | Temp. | Humidity | Pressure | Rain* | Wind** | Luminosity | Snow |
|---|---|---|---|---|---|---|---|
| 1778023118 | 11.11° C | 32% | 846.1 hPa | 0 mm | - | - | - |
| 1778022217 | 11.67° C | 31% | 846.1 hPa | 0 mm | - | - | - |
| 1778021316 | 11.67° C | 31% | 846 hPa | 0 mm | - | - | - |
| 1778020416 | 11.67° C | 31% | 846 hPa | 0 mm | - | - | - |
| 1778019515 | 12.22° C | 30% | 846.1 hPa | 0 mm | - | - | - |
| 1778018615 | 12.78° C | 30% | 846 hPa | 0 mm | - | - | - |
| 1778017716 | 13.33° C | 30% | 845.8 hPa | 0 mm | - | - | - |
| 1778015911 | 13.33° C | 30% | 845.3 hPa | 0 mm | - | - | - |
| 1778015010 | 13.33° C | 30% | 845.2 hPa | 0 mm | - | - | - |
| 1778014109 | 13.89° C | 30% | 845.3 hPa | 0 mm | - | - | - |
| 1778013209 | 13.89° C | 30% | 845.3 hPa | 0 mm | - | - | - |
| 1778012308 | 13.89° C | 30% | 845.5 hPa | 0 mm | - | - | - |
| 1778011408 | 13.89° C | 31% | 845.3 hPa | 0 mm | - | - | - |
| 1778009607 | 13.33° C | 31% | 845.5 hPa | 0 mm | - | - | - |
| 1778008706 | 13.89° C | 31% | 845.6 hPa | 0 mm | - | - | - |
| 1778007806 | 13.89° C | 31% | 845.5 hPa | 0 mm | - | - | - |
| 1778004204 | 13.33° C | 31% | 845.7 hPa | 0 mm | - | - | - |
| 1778003305 | 13.33° C | 31% | 845.7 hPa | 0 mm | - | - | - |
| 1778002403 | 12.78° C | 32% | 845.8 hPa | 0 mm | - | - | - |
| 1778001502 | 11.67° C | 32% | 845.8 hPa | 0 mm | - | - | - |
| 1778000602 | 11.11° C | 33% | 845.9 hPa | 0 mm | - | - | - |
| 1777999702 | 10° C | 33% | 846.2 hPa | 0 mm | - | - | - |
| 1777998800 | 9.44° C | 33% | 846.3 hPa | 0 mm | - | - | - |
| 1777996099 | 8.89° C | 33% | 846.6 hPa | 0 mm | - | - | - |
| 1777995198 | 8.33° C | 35% | 846.7 hPa | 0 mm | - | - | - |
* Rain since midnight (hover to see other rain measurements)
** Current wind speed in m/s (hover to see current wind gust speed)